Regional Weather Roundup
Issued by NWS Cleveland, OH

Home | Current Version | Previous Version | Text Only | Print | Product List | Glossary Off
Versions: 1 2 3 4 5 6 7 8 9 10 11 12 13 14 15 16 17 18 19 20 21 22 23 24 25 26 27 28 29 30 31 32 33 34 35 36 37 38 39 40 41 42 43 44 45 46 47 48 49 50

000
ASUS41 KCLE 221410
RWRCLE
OHIO REGIONAL WEATHER ROUNDUP
NATIONAL WEATHER SERVICE CLEVELAND, OH
900 AM EST MON DEC 22 2014

NOTE: "FAIR" INDICATES FEW OR NO CLOUDS BELOW 12,000 FEET WITH NO
SIGNIFICANT WEATHER AND/OR OBSTRUCTIONS TO VISIBILITY.

OHZ001>008-015>018-024>027-034-035-043-044-221500-
   NORTHWEST OHIO

CITY           SKY/WX    TMP DP  RH WIND       PRES   REMARKS
DEFIANCE       MOCLDY    26  22  84 E7        30.05F FOG     WCI  18
FINDLAY        MOCLDY    27  22  81 E8        30.04F HAZE    WCI  19
TOLEDO EXPRESS CLEAR     25  22  88 E5        30.06F FOG     WCI  19
TOLEDO EXEC    CLEAR     27  21  78 E7        30.08F HAZE    WCI  19
LIMA           CLOUDY    30  24  78 SE9       30.02F HAZE    WCI  22
$$

OHZ009>014-019>023-028>033-038-089-221500-
   NORTHEAST OHIO

CITY           SKY/WX    TMP DP  RH WIND       PRES   REMARKS
CLE-HOPKINS    PTCLDY    27  22  81 SE5       30.12F WCI  22
CLE-LAKEFRONT  CLEAR     29  22  75 SE7       30.10F WCI  22
CUY CO. ARPT   PTCLDY    28  25  86 SE9       30.11S WCI  20
LORAIN-ELYRIA  CLEAR     25  22  88 SE5       30.09F FOG     WCI  19
ASHTABULA      CLEAR     27  22  81 SE7       30.14R WCI  19
AKRON-CANTON   MOSUNNY   27  22  81 E6        30.09S HAZE    WCI  20
WOOSTER        CLEAR     25  22  88 SE5       30.08F FOG     WCI  19
MANSFIELD      MOCLDY    25  23  92 SE3       30.05F FOG
YOUNGSTOWN     MOSUNNY   25  21  85 SE8       30.11R WCI  16
$$

OHZ042-051>053-060>062-070>072-077>081-221500-
  SOUTHWEST OHIO

CITY           SKY/WX    TMP DP  RH WIND       PRES   REMARKS
CINC-COVINGTON CLOUDY    37  27  67 SE8       30.00S
CINC-LUNKEN    MOCLDY    33  30  88 CALM      30.04F
HAMILTON       CLOUDY    34  31  88 CALM      30.03F
DAYTON         CLOUDY    33  28  81 SE7       30.02F HAZE    WCI  27
WRIGHT-PAT AFB CLOUDY    32  28  84 E1        30.03S
DAYTON GENERAL CLOUDY    33  28  81 E7        30.00F WCI  27
WILMINGTON     CLOUDY    30  26  85 SE3       30.02F FOG
$$

OHZ036-037-039>041-045>050-054>059-063>069-073>076-082>088-221500-
  CENTRAL AND SOUTHEAST OHIO

CITY           SKY/WX    TMP DP  RH WIND       PRES   REMARKS
COLUMBUS       CLOUDY    31  25  78 VRB3      30.07S
OSU AIRPORT    CLOUDY    30  25  81 E3        30.05F HAZE
BOLTON FIELD   CLOUDY    28  27  93 E3        30.06F FOG
RICKENBACK AFB CLOUDY    29  26  89 NE7       30.06S FOG     WCI  22
NEWARK         CLOUDY    28  23  81 NE5       30.07F HAZE    WCI  23
MARION         CLOUDY    29  24  82 SE8       30.05F HAZE    WCI  21
LANCASTER      CLOUDY    34  27  75 CALM      30.07F HAZE
ZANESVILLE     CLOUDY    28  23  81 NE3       30.08S HAZE
NEW PHILLY     MOSUNNY   24  20  84 CALM      30.11F FOG
$$



USA.gov is the U.S. government's official web portal to all federal, state and local government web resources and services.